Weather History for Kearney, NE

Change the Weather History Date:

Monday, December 23, 2013

  Actual Average Record
Temperature  
Mean Temperature 9 °F 25 °F  
Max Temperature 14 °F 35 °F 77 °F (1964)
Min Temperature 3 °F 14 °F -30 °F (1989)
Degree Days  
Heating Degree Days 56 40  
Cooling Degree Days 0 0  
Moisture  
Dew Point 3 °F    
Average Humidity 77    
Maximum Humidity 88    
Minimum Humidity 66    
Precipitation  
Precipitation 0.00 in - 0.22 in (1921)
Sea Level Pressure  
Sea Level Pressure 30.43 in    
Wind  
Wind Speed 8 mph (NNW)    
Max Wind Speed 13 mph    
Max Gust Speed -    
Visibility 9 miles    
Events      
T = Trace of Precipitation, MM = Missing Value Source: NWS Daily Summary

Daily Weather History Graph

Daily Weather History Graph

Search for Another Location

Airport:

Trip Planner

Search our weather history database for the weather conditions in past years. The results will help you decide how hot, cold, wet, or windy it might be!

Date:

Astronomy

Dec. 23, 2013 Rise Set
Actual Time 7:57 AM CST 5:13 PM CST
Civil Twilight 7:26 AM CST 5:44 PM CST
Nautical Twilight 6:52 AM CST 6:18 PM CST
Astronomical Twilight 6:18 AM CST 6:51 PM CST
Moon 11:26 PM CST (12/23) 11:21 AM CST (12/23)
Length of Visible Light 10h 17m
Length of Day
9h 15m
Waning Gibbous, 68% of the Moon is Illuminated
Dec 23
Waning Gibbous
Dec 25
Last Quarter
Jan 1
New
Jan 7
First Quarter
Jan 15
Full

Hourly Weather History & Observations

Time (CST) Temp. Windchill Dew Point Humidity Pressure Visibility Wind Dir Wind Speed Gust Speed Precip Events Conditions
12:15 AM 12.2 °F -4.3 °F 8.6 °F 85% 30.35 in 3.0 mi NNW 16.1 mph - N/A   Overcast
12:35 AM 12.2 °F -3.7 °F 6.8 °F 79% 30.35 in 7.0 mi North 15.0 mph - N/A   Overcast
12:55 AM 12.2 °F -2.5 °F 6.8 °F 79% 30.36 in 3.0 mi NNW 12.7 mph - N/A   Overcast
1:15 AM 12.2 °F -1.8 °F 6.8 °F 79% 30.37 in 9.0 mi North 11.5 mph - N/A   Overcast
1:35 AM 10.4 °F -2.4 °F 6.8 °F 85% 30.38 in 7.0 mi North 9.2 mph - N/A   Overcast
1:55 AM 10.4 °F -4.1 °F 6.8 °F 85% 30.38 in 4.0 mi North 11.5 mph - N/A   Overcast
2:15 AM 10.4 °F -0.4 °F 6.8 °F 85% 30.39 in 3.0 mi North 6.9 mph - N/A   Overcast
2:35 AM 10.4 °F -2.4 °F 6.8 °F 85% 30.40 in 3.0 mi North 9.2 mph - N/A   Overcast
2:55 AM 10.4 °F -2.4 °F 6.8 °F 85% 30.41 in 6.0 mi NNW 9.2 mph - N/A   Overcast
3:15 AM 10.4 °F -3.3 °F 6.8 °F 85% 30.41 in 5.0 mi NNW 10.4 mph - N/A   Overcast
3:35 AM 10.4 °F -4.1 °F 6.8 °F 85% 30.40 in 10.0 mi North 11.5 mph - N/A   Overcast
3:55 AM 10.4 °F -4.1 °F 3.2 °F 73% 30.41 in 10.0 mi NNW 11.5 mph - N/A   Overcast
4:15 AM 8.6 °F -5.5 °F 3.2 °F 79% 30.41 in 10.0 mi NNW 10.4 mph - N/A   Overcast
4:35 AM 10.4 °F -3.3 °F 5.0 °F 79% 30.42 in 10.0 mi NNW 10.4 mph - N/A   Overcast
4:55 AM 8.6 °F -7.0 °F 1.4 °F 73% 30.42 in 10.0 mi NW 12.7 mph - N/A   Overcast
5:15 AM 8.6 °F -6.3 °F 1.4 °F 73% 30.43 in 10.0 mi NW 11.5 mph - N/A   Overcast
5:35 AM 6.8 °F -6.9 °F -0.4 °F 72% 30.43 in 10.0 mi NNW 9.2 mph - N/A   Scattered Clouds
5:55 AM 6.8 °F -2.0 °F -0.4 °F 72% 30.44 in 10.0 mi NNW 4.6 mph - N/A   Scattered Clouds
6:15 AM 6.8 °F -3.5 °F 1.4 °F 79% 30.44 in 4.0 mi NNW 5.8 mph - N/A   Overcast
6:35 AM 8.6 °F -5.5 °F 3.2 °F 79% 30.45 in 10.0 mi NNW 10.4 mph - N/A   Overcast
6:55 AM 8.6 °F -5.5 °F 1.4 °F 73% 30.46 in 10.0 mi NNW 10.4 mph - N/A   Overcast
7:15 AM 6.8 °F -6.9 °F 1.4 °F 79% 30.47 in 10.0 mi North 9.2 mph - N/A   Overcast
7:35 AM 6.8 °F -5.9 °F -0.4 °F 72% 30.48 in 10.0 mi North 8.1 mph - N/A   Overcast
7:55 AM 6.8 °F -7.8 °F 1.4 °F 79% 30.48 in 10.0 mi NNW 10.4 mph - N/A   Overcast
8:15 AM 6.8 °F -8.6 °F -0.4 °F 72% 30.50 in 10.0 mi NNW 11.5 mph - N/A   Overcast
8:35 AM 5.0 °F -8.1 °F -0.4 °F 78% 30.49 in 10.0 mi North 8.1 mph - N/A   Overcast
8:55 AM 3.2 °F -11.3 °F -2.2 °F 78% 30.50 in 10.0 mi North 9.2 mph - N/A   Mostly Cloudy
9:15 AM 5.0 °F -10.8 °F -0.4 °F 78% 30.51 in 10.0 mi North 11.5 mph - N/A   Mostly Cloudy
9:35 AM 6.8 °F -7.8 °F -0.4 °F 72% 30.52 in 10.0 mi NNW 10.4 mph - N/A   Overcast
9:55 AM 6.8 °F -6.9 °F -0.4 °F 72% 30.52 in 10.0 mi North 9.2 mph - N/A   Overcast
10:15 AM 6.8 °F -6.9 °F -0.4 °F 72% 30.53 in 10.0 mi NNW 9.2 mph - N/A   Overcast
10:35 AM 6.8 °F -7.8 °F -0.4 °F 72% 30.53 in 10.0 mi NNW 10.4 mph - N/A   Overcast
10:55 AM 8.6 °F -5.5 °F -0.4 °F 67% 30.53 in 10.0 mi NNW 10.4 mph - N/A   Overcast
11:15 AM 8.6 °F -3.7 °F 1.4 °F 73% 30.53 in 10.0 mi NNW 8.1 mph - N/A   Overcast
11:35 AM 6.8 °F -4.8 °F -0.4 °F 72% 30.52 in 10.0 mi North 6.9 mph - N/A   Overcast
11:55 AM 8.6 °F 0.1 °F -0.4 °F 67% 30.51 in 10.0 mi NNW 4.6 mph - N/A   Overcast
12:15 PM 8.6 °F 0.1 °F 1.4 °F 73% 30.51 in 10.0 mi North 4.6 mph - N/A   Overcast
12:35 PM 8.6 °F 2.0 °F 1.4 °F 73% 30.51 in 10.0 mi NNW 3.5 mph - N/A   Overcast
12:55 PM 8.6 °F - 1.4 °F 73% 30.49 in 10.0 mi Calm Calm - N/A   Overcast
1:15 PM 10.4 °F 2.2 °F 1.4 °F 67% 30.48 in 10.0 mi NNW 4.6 mph - N/A   Overcast
1:35 PM 10.4 °F - 1.4 °F 67% 30.47 in 10.0 mi Calm Calm - N/A   Overcast
1:55 PM 10.4 °F - 1.4 °F 67% 30.47 in 10.0 mi Calm Calm - N/A   Overcast
2:15 PM 10.4 °F - 1.4 °F 67% 30.46 in 10.0 mi Calm Calm - N/A   Overcast
2:35 PM 12.2 °F 4.3 °F 3.2 °F 67% 30.46 in 10.0 mi SW 4.6 mph - N/A   Overcast
2:55 PM 12.2 °F 2.9 °F 3.2 °F 67% 30.44 in 10.0 mi SSW 5.8 mph - N/A   Overcast
3:15 PM 12.2 °F 4.3 °F 5.0 °F 73% 30.44 in 10.0 mi SW 4.6 mph - N/A   Overcast
3:35 PM 12.2 °F 1.7 °F 5.0 °F 73% 30.44 in 10.0 mi SSW 6.9 mph - N/A   Overcast
3:55 PM 12.2 °F 1.7 °F 5.0 °F 73% 30.44 in 10.0 mi SSW 6.9 mph - N/A   Overcast
4:15 PM 12.2 °F 1.7 °F 5.0 °F 73% 30.44 in 10.0 mi South 6.9 mph - N/A   Overcast
4:35 PM 12.2 °F 2.9 °F 6.8 °F 79% 30.44 in 10.0 mi South 5.8 mph - N/A   Overcast
4:55 PM 12.2 °F 1.7 °F 6.8 °F 79% 30.44 in 10.0 mi South 6.9 mph - N/A   Overcast
5:15 PM 12.2 °F 1.7 °F 6.8 °F 79% 30.43 in 10.0 mi South 6.9 mph - N/A   Overcast
5:35 PM 12.2 °F 1.7 °F 6.8 °F 79% 30.42 in 10.0 mi South 6.9 mph - N/A   Overcast
5:55 PM 12.2 °F 0.7 °F 6.8 °F 79% 30.42 in 10.0 mi SSE 8.1 mph - N/A   Overcast
6:15 PM 14.0 °F 2.9 °F 8.6 °F 79% 30.41 in 10.0 mi SSE 8.1 mph - N/A   Overcast
6:35 PM 14.0 °F 2.0 °F 6.8 °F 73% 30.41 in 10.0 mi SSE 9.2 mph - N/A   Overcast
6:55 PM 12.2 °F -0.2 °F 6.8 °F 79% 30.41 in 10.0 mi SSE 9.2 mph - N/A   Overcast
7:15 PM 12.2 °F 1.7 °F 6.8 °F 79% 30.41 in 10.0 mi SSE 6.9 mph - N/A   Overcast
7:35 PM 10.4 °F -0.4 °F 5.0 °F 79% 30.41 in 10.0 mi SSE 6.9 mph - N/A   Mostly Cloudy
7:55 PM 8.6 °F -2.6 °F 5.0 °F 85% 30.40 in 10.0 mi SE 6.9 mph - N/A   Partly Cloudy
8:15 PM 6.8 °F -5.9 °F 3.2 °F 85% 30.40 in 10.0 mi SE 8.1 mph - N/A   Clear
8:35 PM 6.8 °F -5.9 °F 5.0 °F 92% 30.40 in 10.0 mi SE 8.1 mph - N/A   Clear
8:55 PM 6.8 °F -6.9 °F 3.2 °F 85% 30.39 in 10.0 mi SSE 9.2 mph - N/A   Clear
9:15 PM 6.8 °F -6.9 °F 3.2 °F 85% 30.38 in 10.0 mi SE 9.2 mph - N/A   Clear
9:35 PM 6.8 °F -6.9 °F 3.2 °F 85% 30.38 in 10.0 mi SSE 9.2 mph - N/A   Clear
9:55 PM 6.8 °F -5.9 °F 3.2 °F 85% 30.38 in 10.0 mi SSE 8.1 mph - N/A   Clear
10:15 PM 6.8 °F -9.3 °F 3.2 °F 85% 30.37 in 10.0 mi SSE 12.7 mph - N/A   Clear
10:35 PM 6.8 °F -7.8 °F 3.2 °F 85% 30.36 in 10.0 mi SSE 10.4 mph - N/A   Clear
10:55 PM 6.8 °F -9.3 °F 3.2 °F 85% 30.35 in 10.0 mi SSE 12.7 mph - N/A   Clear
11:15 PM 6.8 °F -9.3 °F 3.2 °F 85% 30.34 in 10.0 mi SE 12.7 mph - N/A   Clear
11:35 PM 6.8 °F -9.3 °F 3.2 °F 85% 30.34 in 10.0 mi SSE 12.7 mph - N/A   Clear
11:55 PM 6.8 °F -8.6 °F 3.2 °F 85% 30.32 in 10.0 mi SSE 11.5 mph - N/A   Clear